Regional Weather Roundup
Issued by NWS

Home | Current Version | Previous Version | Graphics & Text | Print | Product List | Glossary On
Versions: 1 2 3 4 5 6 7 8 9 10 11 12 13 14 15 16 17 18 19 20 21 22 23 24 25 26 27 28 29 30 31 32 33 34 35 36 37 38 39 40 41 42 43 44 45 46 47 48 49 50
511
ASUS45 KBOU 012007
RWRCO

WEATHER ROUNDUP FOR COLORADO
NATIONAL WEATHER SERVICE DENVER/BOULDER CO
200 PM MDT SUN MAY 01 2016

NOTE: "FAIR" INDICATES FEW OR NO CLOUDS BELOW 12000 FEET WITH NO
SIGNIFICANT WEATHER AND/OR OBSTRUCTIONS TO VISIBILITY.

COZ001>005-013-030-031-012100-
...NORTHWEST COLORADO...

CITY           SKY/WX    TMP DP  RH WIND       PRES   REMARKS
CRAIG          FAIR      54  24  31 E17G24    30.08F
HAYDEN         FAIR      48  21  34 E17G23    30.08F
MEEKER         PTSUNNY   57  26  30 N5        30.04F
MOUNT WERNER   NOT AVBL
STEAMBOAT SPGS FAIR      47  25  42 NE13G21   30.10F
WALDEN         FAIR      41  21  45 NE21G29   30.16F
$$

COZ006>008-011-012100-
...WEST CENTRAL VALLEYS...

CITY           SKY/WX    TMP DP  RH WIND       PRES   REMARKS
GRAND JUNCTION FAIR      57  29  34 VRB6G16   30.02F
MONTROSE       FAIR      54  25  32 SE13      30.04F
EAGLE          MOSUNNY   54  21  28 NE9       30.06F
RIFLE          FAIR      58  23  26 VRB3      30.00F
DELTA          NOT AVBL
NUCLA          NOT AVBL
$$

COZ017>023-064>068-012100-
...SOUTHWEST COLORADO...

CITY           SKY/WX    TMP DP  RH WIND       PRES   REMARKS
DURANGO        LGT RAIN  37  36  96 E5        30.11S
CORTEZ         CLOUDY    50  38  63 SE15G25   30.05R
PAGOSA SPRINGS FLURRIES  37  35  93 N3        30.13S
TELLURIDE      LGT SNOW  37  30  76 SW8       30.10R
WOLF CREEK PAS SNOW      21  21 100 NE6       30.20R VSB 1/2 WCI  14
$$

COZ009-010-012-014-032>034-037-058>063-012100-
...CENTRAL COLORADO...

CITY           SKY/WX    TMP DP  RH WIND       PRES   REMARKS
ASPEN          PTSUNNY   47  22  37 SE16G22   30.07F
BUENA VISTA    CLOUDY    35  23  61 SW3       30.21F
COPPER MTN     NOT AVBL
BERTHOUD PASS  CLOUDY    14   5  67 MISG      30.19R
COTTONWOOD PAS FLURRIES  32  23  69 CALM      30.22F
GUNNISON       FAIR      45  21  39 SE15G22   30.14F
KREMMLING      CLOUDY    46  19  34 E16G24    30.14F
LEADVILLE      SNOW      24  22  91 S13       30.18S VSB 1/2 WCI  12
MONARCH PASS   CLOUDY    19  16  86 MISG      30.26R
SALIDA         CLOUDY    36  34  91 NE3       30.30S
SUNLIGHT       CLOUDY    36  27  69 CALM      30.17S
WILKERSON PASS FOG      N/A N/A N/A NE7       30.24S VSB 1/4
$$

COZ069>075-012100-
...SAN LUIS VALLEY/SANGRE DE CRISTO MOUNTAINS...

CITY           SKY/WX    TMP DP  RH WIND       PRES   REMARKS
ALAMOSA        CLOUDY    45  30  55 E18G29    30.13F
LA VETA PASS   SNOW      27  21  80 MISG      30.21R VSB 1/4
SAGUACHE       CLOUDY    41  23  48 SE8       30.15R
$$

COZ035-036-038>040-012100-
...NORTHERN COLORADO FRONT RANGE...

CITY           SKY/WX    TMP DP  RH WIND       PRES   REMARKS
DENVER INTL AP CLOUDY    38  29  70 NW8       30.29F
DMNS CITY PARK   N/A     36  32  85 N7        30.30S
AURORA         CLOUDY    34  34  99 NW7       30.30S WCI  28
FRONT RANGE AP CLOUDY    37  30  75 N9        30.29F
ERIE MUNI ARPT CLOUDY    38  33  81 CALM      30.30F
BOULDER MUN AP CLOUDY    37  32  81 NW6       30.30S
CENTENNIAL     FLURRIES  34  30  85 N9        30.29S WCI  27
BROOMFIELD     CLOUDY    36  32  87 NW5       30.31F
FORT COLLINS   CLOUDY    43  27  52 N5        30.30F
LONGMONT       CLOUDY    43  30  61 N3        30.32S
$$

COZ041-046-047-076>085-087-088-012100-
...PIKES PEAK/PALMER DIVIDE AND SOUTHERN FOOTHILLS...

CITY           SKY/WX    TMP DP  RH WIND       PRES   REMARKS
COLO. SPRINGS  CLOUDY    37  27  67 N13       30.27S
A. F. ACADEMY  CLOUDY    32  28  86 N15       30.26R WCI  22
SCHRIEVER AFB  NOT AVBL
ELLICOTT       NOT AVBL
FALCON         CLOUDY    36  28  73 N15G22    30.26S
FORT CARSON    CLOUDY    42  28  58 N20       30.25S
LIMON          CLOUDY    36  31  82 N14       30.27R
MONUMENT HILL  CLOUDY    32  28  86 N9        30.28S WCI  24
TRINIDAD       LGT SNOW  35  31  85 N9        30.27F FOG     WCI  28
$$

COZ042>045-048>051-090-091-012100-
...NORTHEAST COLORADO...

CITY           SKY/WX    TMP DP  RH WIND       PRES   REMARKS
GREELEY ARPT   CLOUDY    45  27  49 NE9       30.30S
AKRON          FAIR      38  30  73 N10       30.26F
BURLINGTON     PTSUNNY   49  29  46 N26       30.22R
WRAY           NOT AVBL
STERLING       FAIR      50  30  46 N18G25    30.26S
HOLYOKE        NOT AVBL
FORT MORGAN    PTSUNNY   47  26  43 N13G18    30.28S
$$

COZ086-089-092>099-012100-
...SOUTHEAST COLORADO...

CITY           SKY/WX    TMP DP  RH WIND       PRES   REMARKS
PUEBLO         CLOUDY    46  30  53 NE12      30.27F
LA JUNTA       CLOUDY    46  32  58 N17       30.26F
LAMAR          CLOUDY    46  34  62 N13       30.23F
SPRINGFIELD      N/A     40  34  79 N23       30.22F
$$




USA.gov is the U.S. government's official web portal to all federal, state and local government web resources and services.